This is the latest recevied weather packets stored in our database for station/object N4ASP-13. If no packets are shown the sender has not sent any weather packets the latest 10 day(s).
| Time | Temp. | Humidity | Pressure | Rain* | Wind** | Luminosity | Snow |
|---|---|---|---|---|---|---|---|
| 1777659642 | 17.22° C | 48% | 1013.8 hPa | 0 mm | - | 986 W/m² | - |
| 1777659579 | 17.22° C | 49% | 1013.9 hPa | 0 mm | - | 1053 W/m² | - |
| 1777659520 | 17.22° C | 48% | 1013.9 hPa | 0 mm | - | 1102 W/m² | - |
| 1777659460 | 17.22° C | 50% | 1013.9 hPa | 0 mm | - | 1106 W/m² | - |
| 1777659400 | 17.22° C | 52% | 1013.9 hPa | 0 mm | - | 1104 W/m² | - |
| 1777659340 | 16.67° C | 50% | 1013.9 hPa | 0 mm | - | 1086 W/m² | - |
| 1777659279 | 16.67° C | 49% | 1014 hPa | 0 mm | - | 1132 W/m² | - |
| 1777659218 | 16.67° C | 49% | 1013.9 hPa | 0 mm | - | 1127 W/m² | - |
| 1777659158 | 16.67° C | 51% | 1013.8 hPa | 0 mm | - | 1069 W/m² | - |
| 1777659099 | 16.67° C | 49% | 1013.9 hPa | 0 mm | - | 1114 W/m² | - |
| 1777659037 | 16.67° C | 51% | 1013.9 hPa | 0 mm | - | 1099 W/m² | - |
| 1777658978 | 16.67° C | 50% | 1013.9 hPa | 0 mm | - | 1134 W/m² | - |
| 1777658919 | 16.67° C | 48% | 1014 hPa | 0 mm | - | 1129 W/m² | - |
| 1777658859 | 16.67° C | 49% | 1013.9 hPa | 0 mm | - | 1106 W/m² | - |
| 1777658797 | 16.11° C | 51% | 1014 hPa | 0 mm | - | 1106 W/m² | - |
| 1777658737 | 16.11° C | 50% | 1014 hPa | 0 mm | - | 1088 W/m² | - |
| 1777658675 | 16.11° C | 48% | 1014 hPa | 0 mm | - | 1085 W/m² | - |
| 1777658615 | 16.11° C | 48% | 1014 hPa | 0 mm | - | 1086 W/m² | - |
| 1777658554 | 16.11° C | 52% | 1014 hPa | 0 mm | - | 1083 W/m² | - |
| 1777658494 | 16.11° C | 52% | 1013.9 hPa | 0 mm | - | 1079 W/m² | - |
| 1777658435 | 16.11° C | 50% | 1014 hPa | 0 mm | - | 1081 W/m² | - |
| 1777658371 | 16.11° C | 48% | 1014 hPa | 0 mm | - | 1069 W/m² | - |
| 1777658310 | 16.11° C | 49% | 1014 hPa | 0 mm | - | 1078 W/m² | - |
| 1777658251 | 16.11° C | 50% | 1014 hPa | 0 mm | - | 1083 W/m² | - |
| 1777658191 | 16.11° C | 51% | 1014 hPa | 0 mm | - | 1085 W/m² | - |
* Rain latest hour (hover to see other rain measurements)
** Current wind speed in m/s (hover to see current wind gust speed)